[[{"header":{"parameterUnit":"m.s-1","parameterCategory":1,"la1":30.2991,"la2":30.254,"lo1":-89.0895,"lo2":-89.0444,"dy":0.0017,"dx":0.0017,"nx":28,"ny":28,"refTime":"2023-08-12T03:00:00:Z","depth":0,"parameterNumber":2,"parameterNumberName":"U-component_of_WINDS"},"data":[0,0,0,0,0,0,0,0,0,0,0,0,0,0,0,0,0,0,0,0,0,0,0,0,0,0,0,0,0,0,0,0,0,0,0,0,0,0,0,0,0,0,0,0,0,0,0,0,0,0,0,0,0,0,0,0,0,0,1.4681,1.4682,0,1.4804,1.4805,1.4807,1.4791,1.4789,1.4787,1.4785,1.4916,1.4922,1.4927,0,0,0,0,0,0,0,0,0,0,0,0,0,1.4438,1.4443,1.4681,1.4682,1.4684,1.4804,1.4805,1.4807,1.4792,1.4789,1.4787,1.4784,1.4915,1.4921,1.4927,0,0,0,0,0,0,0,0,0,0,0,0,0,1.4551,1.4444,1.468,1.469,1.4692,1.4803,1.4805,1.4807,1.4792,1.4789,1.4786,1.4783,1.4912,1.492,1.4928,1.5039,0,0,1.4953,1.4956,0,0,0,0,0,0,0,0,1.4544,1.456,1.4687,1.469,1.4692,1.4779,1.4768,1.4885,1.4793,1.4754,1.4785,1.4782,1.4873,1.4884,1.4914,1.5045,1.505,1.4954,1.4958,1.4962,1.4964,0,0,0,0,0,0,0,1.4536,1.4554,1.4729,1.4689,1.4692,1.4691,1.4703,1.479,1.483,1.4757,1.4757,1.4771,1.4874,1.4907,1.4917,1.5052,1.4953,1.496,1.4965,1.4969,1.5283,1.5286,0,0,0,0,0,0,1.4525,1.4548,1.4726,1.4733,1.4609,1.4697,1.4712,1.4754,1.4828,1.4837,1.4774,1.477,1.4894,1.4908,1.4922,1.5059,1.4962,1.4969,1.4974,1.528,1.5284,1.5288,0,0,0,0,0,0,1.452,1.4541,1.4721,1.464,1.4663,1.4705,1.4753,1.4758,1.4791,1.4841,1.4848,1.4799,1.4892,1.4911,1.501,1.5063,1.4973,1.498,1.5275,1.5281,1.5286,1.5332,0,0,0,0,0,0,1.4513,1.454,1.458,1.4641,1.4667,1.4805,1.4756,1.4763,1.4804,1.48,1.4867,1.4875,1.4891,1.4998,1.5018,1.5072,1.4987,1.5271,1.5278,1.5284,1.5326,1.5338,1.5348,0,0,0,0,0,1.4505,1.4589,1.4582,1.4604,1.4719,1.4808,1.4823,1.4839,1.4808,1.4851,1.4883,1.4873,1.5053,1.5008,1.5031,1.5088,1.5268,1.5276,1.5284,1.5321,1.5335,1.5348,0,0,0,0,0,0,1.4534,1.4597,1.4591,1.4696,1.4747,1.4805,1.4859,1.4854,1.4916,1.491,1.4929,1.4944,1.5046,1.5077,1.5025,1.5201,1.5157,1.5169,1.5177,1.5192,1.5203,1.5194,1.4993,0,0,0,0,0,1.4552,1.4618,1.467,1.4758,1.4784,1.4817,1.4857,1.4865,1.4919,1.494,1.498,1.5034,1.5104,1.5149,1.5215,1.5329,1.5346,1.538,1.5391,1.54,1.5412,1.5479,1.5496,1.5314,1.5314,1.5314,0,0,1.4592,1.4634,1.4675,1.4765,1.4805,1.4875,1.4835,1.491,1.4963,1.4952,1.5049,1.508,1.5142,1.525,1.53,1.5279,1.5466,1.5411,1.5417,1.5424,1.5489,1.5506,1.5521,1.5319,1.5318,1.5317,0,0,1.47,1.4737,1.4817,1.4858,1.4919,1.4941,1.496,1.5019,1.5039,1.5136,1.5131,1.5195,1.5312,1.5358,1.5396,1.5524,1.5518,1.5545,1.5605,1.5669,1.5684,1.5697,1.5746,1.5762,1.5556,1.5556,1.5556,0,1.4742,1.4845,1.4858,1.4935,1.4976,1.4968,1.5051,1.509,1.517,1.52,1.5175,1.5325,1.5366,1.5487,1.5518,1.5548,1.5573,1.5538,1.568,1.5693,1.5706,1.5753,1.577,1.5559,1.5559,1.5558,1.5558,0,1.4895,1.4967,1.5024,1.5101,1.5149,1.5228,1.5255,1.5302,1.5307,1.5332,1.5433,1.5482,1.5559,1.5588,1.5593,1.571,1.5696,1.5675,1.5632,1.5726,1.5771,1.5788,1.5563,1.5562,1.5561,1.5561,0,0,1.5026,1.511,1.5131,1.5167,1.5235,1.5292,1.5371,1.5446,1.5487,1.5543,1.5613,1.5713,1.5696,1.5739,1.575,1.5806,1.5908,1.5779,1.5781,1.5804,1.6044,1.6062,1.6082,1.5903,1.5906,1.5909,1.604,0,1.5143,1.5283,1.5298,1.5423,1.5492,1.5486,1.5556,1.5607,1.5633,1.5696,1.5726,1.5798,1.5767,1.5794,1.5849,1.5884,1.5957,1.5874,1.5971,1.5975,1.5959,1.6105,1.6123,1.6245,1.6058,1.606,1.6063,0,1.5298,1.5359,1.5491,1.5551,1.5581,1.5643,1.5714,1.5774,1.5832,1.5847,1.5897,1.59,1.5986,1.5937,1.6057,1.6,1.6041,1.6064,1.6069,1.6081,1.6026,1.6124,1.6283,1.6303,1.6089,1.6087,1.6085,0,1.5385,1.5498,1.5593,1.5624,1.5696,1.574,1.5773,1.5827,1.5872,1.5935,1.5965,1.6037,1.6077,1.6134,1.6158,1.612,1.6278,1.623,1.6296,1.6296,1.6332,1.633,1.6504,1.6353,1.6353,1.6352,1.6352,0,1.5516,1.5598,1.5633,1.5692,1.5785,1.5802,1.5894,1.5925,1.5974,1.6041,1.6039,1.6102,1.6129,1.6197,1.6216,1.6314,1.6332,1.6349,1.6354,1.6351,1.6349,1.638,1.6374,1.6357,1.6356,1.6355,1.6354,0,1.5629,1.5655,1.5759,1.5818,1.5835,1.5902,1.5954,1.6012,1.6037,1.6122,1.6143,1.6183,1.6264,1.6292,1.639,1.6403,1.6518,1.6514,1.6499,1.6501,1.6566,1.6561,1.6768,1.6798,1.6624,1.6626,1.6627,0,1.5712,1.5775,1.5842,1.5885,1.5919,1.599,1.6036,1.6056,1.6104,1.6176,1.6227,1.6306,1.6371,1.6499,1.6539,1.6615,1.6615,1.6682,1.6626,1.6623,1.6621,1.6618,1.6626,1.6694,1.6695,1.6697,1.6698,0,1.5858,1.5868,1.5934,1.6005,1.6059,1.6116,1.6172,1.6208,1.6237,1.6292,1.6373,1.6424,1.6523,1.6604,1.6681,1.6717,1.6715,1.6715,1.6735,1.6734,1.6724,1.6735,1.6531,1.6711,1.6709,1.6709,1.6708,1.6707,1.5961,1.6018,1.6075,1.6149,1.6192,1.6245,1.6303,1.6336,1.6403,1.6486,1.6494,1.6582,1.6642,1.6745,1.6785,1.6857,1.6839,1.6866,1.6874,1.6882,1.6889,1.671,1.687,1.687,1.687,1.6869,1.6869,0,1.611,1.6147,1.6214,1.6292,1.6351,1.634,1.6402,1.6453,1.653,1.6585,1.6649,1.6744,1.6822,1.6868,1.6948,1.6996,1.6997,1.7017,1.7015,1.7025,1.6898,1.6875,1.7015,1.7015,1.7015,1.7015,1.7015,1.7015,1.6195,1.6292,1.631,1.643,1.6466,1.6552,1.6589,1.6638,1.6682,1.6789,1.6853,1.6882,1.6935,1.7018,1.709,1.7102,1.7133,1.7155,1.7166,1.7048,1.7033,1.7019,1.6997,1.7161,1.7161,1.7287,1.7288,1.7289]},{"header":{"parameterUnit":"m.s-1","parameterCategory":1,"la1":30.2991,"la2":30.254,"lo1":-89.0895,"lo2":-89.0444,"dy":0.0017,"dx":0.0017,"nx":28,"ny":28,"refTime":"2023-08-12T03:00:00:Z","depth":0,"parameterNumber":3,"parameterNumberName":"V-component_of_WINDS"},"data":[0,0,0,0,0,0,0,0,0,0,0,0,0,0,0,0,0,0,0,0,0,0,0,0,0,0,0,0,0,0,0,0,0,0,0,0,0,0,0,0,0,0,0,0,0,0,0,0,0,0,0,0,0,0,0,0,0,0,4.9409,4.9411,0,4.9577,4.9579,4.9581,4.9565,4.9562,4.956,4.9557,4.972,4.9726,4.9733,0,0,0,0,0,0,0,0,0,0,0,0,0,4.9065,4.9072,4.9409,4.9411,4.9413,4.9577,4.9579,4.9581,4.9565,4.9562,4.9559,4.9556,4.9717,4.9725,4.9733,0,0,0,0,0,0,0,0,0,0,0,0,0,4.9222,4.9074,4.9408,4.9425,4.9428,4.9576,4.9579,4.9582,4.9566,4.9562,4.9558,4.9555,4.9715,4.9725,4.9735,4.9874,0,0,4.9765,4.977,0,0,0,0,0,0,0,0,4.9213,4.9234,4.942,4.9424,4.9428,4.9546,4.9517,4.9679,4.9567,4.9513,4.9557,4.9553,4.9664,4.9678,4.9718,4.9881,4.9888,4.9766,4.9772,4.9777,4.9779,0,0,0,0,0,0,0,4.9202,4.9227,4.9475,4.9423,4.9428,4.9421,4.9439,4.9548,4.9608,4.9518,4.9517,4.9538,4.9666,4.9708,4.9722,4.9891,4.9766,4.9775,4.9781,4.9785,5.0179,5.0183,0,0,0,0,0,0,4.9189,4.9218,4.947,4.948,4.9309,4.9431,4.9451,4.9512,4.9607,4.9618,4.9541,4.9536,4.9693,4.971,4.9727,4.9899,4.9777,4.9786,4.9792,5.0174,5.018,5.0184,0,0,0,0,0,0,4.9181,4.9211,4.9463,4.9349,4.9381,4.9441,4.951,4.9517,4.956,4.9625,4.9634,4.9574,4.9691,4.9713,4.9839,4.9904,4.9791,4.98,5.0169,5.0176,5.0182,5.0241,0,0,0,0,0,0,4.9172,4.9209,4.9264,4.9351,4.9387,4.9574,4.9514,4.9523,4.9579,4.9575,4.9658,4.9668,4.9689,4.9824,4.9849,4.9916,4.9808,5.0163,5.0172,5.018,5.0234,5.0249,5.0262,0,0,0,0,0,4.9159,4.9271,4.9267,4.9297,4.9458,4.9578,4.9598,4.9623,4.9584,4.9639,4.9681,4.9666,4.9893,4.9837,4.9865,4.9936,5.0159,5.017,5.0179,5.0227,5.0246,5.0262,0,0,0,0,0,0,4.9187,4.9283,4.9279,4.9423,4.9493,4.9575,4.9645,4.9642,4.9721,4.9714,4.9738,4.9757,4.9884,4.9922,4.9858,5.0077,5.002,5.0036,5.0048,5.0066,5.008,5.0068,4.9816,0,0,0,0,0,4.921,4.9303,4.938,4.95,4.9535,4.9585,4.9638,4.9651,4.9723,4.9751,4.9802,4.987,4.9957,5.0013,5.0096,5.0239,5.0257,5.0301,5.0316,5.0327,5.0341,5.0421,5.0442,5.0217,5.0217,5.0217,0,0,4.9258,4.9322,4.9378,4.9507,4.9563,4.9656,4.9609,4.9709,4.9778,4.9765,4.9889,4.9928,5.0005,5.0141,5.0203,5.0176,5.0407,5.034,5.0348,5.0356,5.0433,5.0455,5.0474,5.0224,5.0222,5.0221,0,0,4.9394,4.9452,4.9559,4.9617,4.9704,4.9736,4.9762,4.9846,4.9873,4.9998,4.9991,5.0071,5.022,5.0276,5.0324,5.0484,5.0473,5.051,5.0584,5.0662,5.068,5.0696,5.0755,5.0775,5.0523,5.0523,5.0523,0,4.9442,4.9586,4.9614,4.9717,4.9773,4.977,4.9878,4.9932,5.0039,5.0078,5.0047,5.0236,5.0287,5.0437,5.0476,5.0514,5.0544,5.0501,5.0676,5.0692,5.0707,5.0763,5.0785,5.0527,5.0527,5.0526,5.0526,0,4.9642,4.9741,4.9817,4.9926,4.9991,5.0095,5.0137,5.0199,5.0207,5.0242,5.0369,5.0431,5.0528,5.0564,5.0571,5.0716,5.0697,5.0671,5.0615,5.0732,5.0786,5.0807,5.0533,5.0532,5.053,5.0529,0,0,4.9799,4.9925,4.9953,5.0003,5.01,5.0176,5.0279,5.0378,5.0431,5.0505,5.0593,5.072,5.0698,5.0752,5.0765,5.0833,5.0959,5.0799,5.0801,5.0828,5.1123,5.1143,5.1168,5.0952,5.0956,5.0959,5.1117,0,4.9946,5.0135,5.0164,5.0329,5.0422,5.0421,5.0511,5.0579,5.0614,5.0696,5.0733,5.0824,5.0787,5.082,5.0888,5.0929,5.1018,5.0918,5.1032,5.1036,5.1015,5.1196,5.1217,5.1363,5.1138,5.1141,5.1144,0,5.0143,5.0228,5.0404,5.0491,5.053,5.0612,5.0706,5.0784,5.086,5.0881,5.0944,5.0949,5.1055,5.0995,5.1141,5.1072,5.112,5.1148,5.1154,5.1166,5.1098,5.1214,5.141,5.1433,5.1177,5.1174,5.1172,0,5.0243,5.04,5.0527,5.057,5.0673,5.0731,5.0776,5.0849,5.0907,5.0988,5.1026,5.1116,5.1166,5.1234,5.1264,5.1217,5.1408,5.135,5.1428,5.1428,5.1469,5.1466,5.1677,5.1498,5.1497,5.1497,5.1496,0,5.0405,5.0513,5.0574,5.0652,5.0772,5.0803,5.0921,5.0963,5.1029,5.1113,5.1116,5.1194,5.1228,5.1311,5.1333,5.1452,5.1473,5.1492,5.1497,5.1493,5.1491,5.1526,5.1517,5.1503,5.1501,5.15,5.1499,0,5.0537,5.0582,5.0721,5.0809,5.0833,5.0919,5.0993,5.1067,5.1103,5.121,5.1236,5.1291,5.1389,5.1426,5.1543,5.1559,5.1697,5.1692,5.1672,5.1674,5.1751,5.1744,5.1993,5.2028,5.1823,5.1825,5.1827,0,5.0639,5.0723,5.0821,5.0881,5.0929,5.1023,5.1084,5.1117,5.118,5.1275,5.1338,5.1437,5.1518,5.1674,5.1723,5.1814,5.1812,5.1893,5.1825,5.182,5.1816,5.1811,5.182,5.1906,5.1908,5.191,5.1911,0,5.0814,5.0834,5.0923,5.1022,5.1096,5.1174,5.1249,5.1296,5.1341,5.1411,5.1514,5.1577,5.1701,5.1799,5.1892,5.1935,5.1931,5.1932,5.1955,5.1953,5.1939,5.195,5.1709,5.1926,5.1925,5.1924,5.1923,5.1922,5.0936,5.1011,5.1094,5.1194,5.1256,5.1327,5.1403,5.145,5.1538,5.1644,5.1656,5.1768,5.1842,5.1968,5.2016,5.2101,5.2079,5.2112,5.2121,5.2129,5.2136,5.1925,5.2118,5.2117,5.2117,5.2117,5.2116,0,5.1113,5.1168,5.126,5.1368,5.1447,5.144,5.1523,5.1589,5.1688,5.176,5.1841,5.196,5.2056,5.2113,5.2209,5.2266,5.2267,5.229,5.2287,5.2297,5.2149,5.2121,5.2289,5.2289,5.2289,5.2288,5.2288,5.2288,5.1215,5.1344,5.1373,5.1532,5.1584,5.1697,5.1745,5.1811,5.1869,5.2003,5.2084,5.2122,5.2188,5.2289,5.2376,5.239,5.2426,5.2452,5.2464,5.2325,5.2307,5.229,5.2264,5.2459,5.2459,5.2606,5.2607,5.2608]}]]